Weather History for KCBF - April, 2013

Change the Weather History Date:

Sunday, April 28, 2013

  Actual Average Record
Temperature  
Mean Temperature 62 °F -  
Max Temperature 80 °F 64 °F 87 °F (2001)
Min Temperature 44 °F 46 °F 33 °F (2008)
Degree Days  
Heating Degree Days 3    
Growing Degree Days 12 (Base 50)    
Moisture  
Dew Point 49 °F    
Average Humidity 66    
Maximum Humidity 100    
Minimum Humidity 30    
Precipitation  
Precipitation 0.00 in - - ()
Sea Level Pressure  
Sea Level Pressure 29.83 in    
Wind  
Wind Speed 11 mph (South)    
Max Wind Speed 21 mph    
Max Gust Speed 29 mph    
Visibility 9 miles    
Events      
Averages and records for this station are not official NWS values.
T = Trace of Precipitation, MM = Missing Value Source: NWS Daily Summary

Daily Weather History Graph

Daily Weather History Graph

Search for Another Location

Airport or City:

Trip Planner

Search our weather history database for the weather conditions in past years. The results will help you decide how hot, cold, wet, or windy it might be!

Date:

Astronomy

Apr. 28, 2013 Rise Set
Actual Time 6:24 AM CDT 8:17 PM CDT
Civil Twilight 5:54 AM CDT 8:47 PM CDT
Nautical Twilight 5:18 AM CDT 9:23 PM CDT
Astronomical Twilight 4:39 AM CDT 10:02 PM CDT
Moon 11:49 PM CDT (4/28) 8:40 AM CDT (4/28)
Length of Visible Light 14h 52m
Length of Day
13h 53m
Waning Gibbous, 88% of the Moon is Illuminated
Apr 28
Waning Gibbous
May 2
Last Quarter
May 9
New
May 17
First Quarter
May 24
Full

Hourly Weather History & Observations

Time (CDT) Temp. Windchill Dew Point Humidity Pressure Visibility Wind Dir Wind Speed Gust Speed Precip Events Conditions
12:15 AM 53.6 °F - 48.2 °F 82% 29.95 in 10.0 mi South 8.1 mph - N/A   Scattered Clouds
12:35 AM 53.6 °F - 46.4 °F 77% 29.95 in 10.0 mi SSW 9.2 mph - N/A   Mostly Cloudy
12:55 AM 53.6 °F - 48.2 °F 82% 29.95 in 10.0 mi SSW 10.4 mph - N/A   Overcast
1:15 AM 53.6 °F - 46.4 °F 77% 29.96 in 10.0 mi SSW 10.4 mph - N/A   Overcast
1:35 AM 51.8 °F - 46.4 °F 82% 29.96 in 10.0 mi SSW 9.2 mph - N/A   Overcast
1:55 AM 51.8 °F - 46.4 °F 82% 29.95 in 10.0 mi SSW 8.1 mph - N/A   Mostly Cloudy
2:15 AM 51.8 °F - 46.4 °F 82% 29.95 in 10.0 mi South 8.1 mph - N/A   Overcast
2:35 AM 50.0 °F - 46.4 °F 87% 29.95 in 10.0 mi South 8.1 mph - N/A   Overcast
2:55 AM 48.2 °F - 46.4 °F 93% 29.94 in 10.0 mi South 5.8 mph - N/A   Overcast
3:15 AM 48.2 °F - 46.4 °F 93% 29.94 in 10.0 mi SSE 6.9 mph - N/A   Overcast
3:35 AM 46.4 °F 42.4 °F 46.4 °F 100% 29.94 in 10.0 mi South 8.1 mph - N/A   Overcast
3:55 AM 48.2 °F - 46.4 °F 93% 29.93 in 10.0 mi SSE 9.2 mph - N/A   Overcast
4:15 AM 46.4 °F 41.9 °F 46.4 °F 100% 29.92 in 7.0 mi SSE 9.2 mph - N/A   Overcast
4:35 AM 46.4 °F 42.9 °F 46.4 °F 100% 29.93 in 8.0 mi SSE 6.9 mph - N/A   Overcast
4:55 AM 46.4 °F 41.5 °F 46.4 °F 100% 29.92 in 6.0 mi SSE 10.4 mph - N/A   Overcast
5:15 AM 46.4 °F 41.9 °F 46.4 °F 100% 29.92 in 6.0 mi South 9.2 mph - N/A   Scattered Clouds
5:35 AM 44.6 °F 40.2 °F 44.6 °F 100% 29.92 in 4.0 mi SSE 8.1 mph - N/A   Scattered Clouds
5:55 AM 44.6 °F 40.2 °F 44.6 °F 100% 29.91 in 4.0 mi SSE 8.1 mph - N/A   Mostly Cloudy
6:15 AM 44.6 °F 40.7 °F 44.6 °F 100% 29.91 in 3.0 mi SSE 6.9 mph - N/A   Scattered Clouds
6:35 AM 44.6 °F 40.7 °F 44.6 °F 100% 29.91 in 2.5 mi SSE 6.9 mph - N/A   Clear
6:55 AM 44.6 °F 40.7 °F 44.6 °F 100% 29.91 in 2.0 mi SSE 6.9 mph - N/A   Clear
7:15 AM 46.4 °F 43.5 °F 46.4 °F 100% 29.91 in 2.0 mi SSE 5.8 mph - N/A   Clear
7:35 AM 46.4 °F 43.5 °F 46.4 °F 100% 29.92 in 2.0 mi SSE 5.8 mph - N/A   Clear
8:15 AM 50.0 °F - 50.0 °F 100% 29.91 in 4.0 mi South 8.1 mph - N/A   Clear
8:35 AM 53.6 °F - 50.0 °F 88% 29.90 in 9.0 mi South 11.5 mph - N/A   Clear
8:55 AM 53.6 °F - 51.8 °F 94% 29.90 in 10.0 mi South 10.4 mph - N/A   Clear
9:15 AM 55.4 °F - 51.8 °F 88% 29.89 in 10.0 mi South 9.2 mph - N/A   Clear
9:35 AM 57.2 °F - 51.8 °F 82% 29.88 in 10.0 mi South 9.2 mph 16.1 mph N/A   Clear
9:55 AM 59.0 °F - 51.8 °F 77% 29.87 in 10.0 mi South 10.4 mph 17.3 mph N/A   Clear
10:15 AM 60.8 °F - 53.6 °F 77% 29.86 in 10.0 mi South 10.4 mph - N/A   Clear
10:35 AM 62.6 °F - 53.6 °F 72% 29.86 in 10.0 mi South 11.5 mph - N/A   Clear
10:55 AM 64.4 °F - 51.8 °F 64% 29.85 in 10.0 mi South 16.1 mph - N/A   Clear
11:15 AM 66.2 °F - 51.8 °F 60% 29.84 in 10.0 mi South 13.8 mph - N/A   Clear
11:35 AM 68.0 °F - 51.8 °F 56% 29.84 in 10.0 mi South 11.5 mph 20.7 mph N/A   Clear
11:55 AM 69.8 °F - 50.0 °F 49% 29.83 in 10.0 mi SSW 17.3 mph - N/A   Clear
12:15 PM 69.8 °F - 48.2 °F 46% 29.83 in 10.0 mi South 16.1 mph 23.0 mph N/A   Clear
12:35 PM 71.6 °F - 50.0 °F 46% 29.83 in 10.0 mi SSW 15.0 mph - N/A   Clear
12:55 PM 71.6 °F - 50.0 °F 46% 29.81 in 10.0 mi SSW 17.3 mph 25.3 mph N/A   Clear
1:15 PM 73.4 °F - 48.2 °F 41% 29.80 in 10.0 mi South 15.0 mph 25.3 mph N/A   Clear
1:35 PM 73.4 °F - 50.0 °F 44% 29.79 in 10.0 mi South 20.7 mph - N/A   Clear
1:55 PM 75.2 °F - 50.0 °F 41% 29.79 in 10.0 mi South 15.0 mph 23.0 mph N/A   Clear
2:15 PM 75.2 °F - 48.2 °F 38% 29.78 in 10.0 mi South 18.4 mph 25.3 mph N/A   Clear
2:35 PM 77.0 °F - 48.2 °F 36% 29.77 in 10.0 mi SW 18.4 mph 28.8 mph N/A   Clear
2:55 PM 78.8 °F - 48.2 °F 34% 29.77 in 10.0 mi SSW 16.1 mph 23.0 mph N/A   Clear
3:15 PM 78.8 °F - 46.4 °F 32% 29.75 in 10.0 mi SSW 20.7 mph - N/A   Clear
3:35 PM 78.8 °F - 46.4 °F 32% 29.75 in 10.0 mi SSW 16.1 mph 25.3 mph N/A   Clear
3:55 PM 80.6 °F - 46.4 °F 30% 29.74 in 10.0 mi SSW 19.6 mph 28.8 mph N/A   Clear
4:15 PM 78.8 °F - 48.2 °F 34% 29.73 in 10.0 mi South 17.3 mph 24.2 mph N/A   Clear
4:35 PM 78.8 °F - 48.2 °F 34% 29.73 in 10.0 mi SSW 17.3 mph 23.0 mph N/A   Clear
4:55 PM 78.8 °F - 48.2 °F 34% 29.72 in 10.0 mi South 18.4 mph - N/A   Clear
5:15 PM 78.8 °F - 50.0 °F 36% 29.72 in 10.0 mi South 17.3 mph - N/A   Clear
5:35 PM 78.8 °F - 50.0 °F 36% 29.71 in 10.0 mi South 15.0 mph - N/A   Clear
5:55 PM 78.8 °F - 48.2 °F 34% 29.71 in 10.0 mi SSW 11.5 mph - N/A   Clear
6:15 PM 77.0 °F - 50.0 °F 39% 29.71 in 10.0 mi South 13.8 mph 20.7 mph N/A   Clear
6:35 PM 75.2 °F - 51.8 °F 44% 29.71 in 10.0 mi South 10.4 mph - N/A   Clear
6:55 PM 75.2 °F - 51.8 °F 44% 29.70 in 10.0 mi South 10.4 mph - N/A   Clear
7:15 PM 75.2 °F - 51.8 °F 44% 29.70 in 10.0 mi South 9.2 mph - N/A   Clear
7:35 PM 73.4 °F - 51.8 °F 47% 29.70 in 10.0 mi South 9.2 mph - N/A   Clear
7:55 PM 73.4 °F - 51.8 °F 47% 29.70 in 10.0 mi SSE 10.4 mph - N/A   Clear
8:15 PM 71.6 °F - 51.8 °F 50% 29.70 in 10.0 mi South 11.5 mph - N/A   Clear
8:35 PM 71.6 °F - 51.8 °F 50% 29.70 in 10.0 mi SSE 10.4 mph - N/A   Clear
8:55 PM 69.8 °F - 50.0 °F 49% 29.71 in 10.0 mi SSE 11.5 mph - N/A   Clear
9:15 PM 69.8 °F - 51.8 °F 53% 29.72 in 10.0 mi South 10.4 mph 17.3 mph N/A   Clear
9:35 PM 68.0 °F - 53.6 °F 60% 29.73 in 10.0 mi South 11.5 mph - N/A   Clear
9:55 PM 68.0 °F - 53.6 °F 60% 29.74 in 10.0 mi South 10.4 mph - N/A   Clear
10:15 PM 68.0 °F - 53.6 °F 60% 29.74 in 10.0 mi South 11.5 mph - N/A   Clear
10:35 PM 66.2 °F - 53.6 °F 64% 29.75 in 10.0 mi South 9.2 mph - N/A   Clear
10:55 PM 66.2 °F - 53.6 °F 64% 29.74 in 10.0 mi South 10.4 mph - N/A   Clear
11:15 PM 64.4 °F - 53.6 °F 68% 29.74 in 10.0 mi South 10.4 mph - N/A   Clear
11:35 PM 64.4 °F - 53.6 °F 68% 29.75 in 10.0 mi South 11.5 mph - N/A   Clear
11:55 PM 62.6 °F - 53.6 °F 72% 29.75 in 10.0 mi SSE 12.7 mph - N/A   Clear